Wind_Speed
5 2 4 3 6 8 8 9 8 4 3 5 6 3 6 15 21 24 25 24 20 19 23 21 21 22 23 24 21 19 14 22 7 9 9 9 12 13 14 13 12 15 17
7 3 2 2 4 7 11 11 11 10 8 6 4 7 8 12 16 15 19 20 20 14 15 14 17 22 26 23 23 21 17 14 12 10 13 14 13 11 11 12 12 16 21
5 5 4 4 7 9 11 14 16 17 15 10 7 5 9 13 12 8 14 10 6 9 10 12 14 16 21 22 21 18 16 17 15 12 13 15 17 11 16 17 17 19 18
10 10 9 6 7 9 10 12 14 15 17 18 12 6 5 9 12 11 9 4 7 11 12 10 11 13 16 15 15 17 18 20 17 13 14 11 10 16 21 19 20 21 20
7 6 5 5 6 7 9 11 11 14 15 15 14 12 7 5 6 7 7 5 5 9 9 10 10 11 14 17 15 13 12 14 17 16 13 9 10 11 14 15 17 21 21
5 4 1 1 3 5 7 9 9 11 14 13 15 13 11 8 7 8 8 9 10 8 9 11 12 12 12 12 15 17 17 16 17 16 17 16 18 14 14 14 12 5 3
4 3 6 6 6 7 8 9 11 11 11 13 14 14 10 8 9 11 9 9 11 11 13 13 14 14 14 13 13 15 19 21 24 22 19 22 21 17 16 17 13 8 7
9 9 10 10 7 7 10 13 16 16 16 16 15 14 11 16 15 16 14 15 16 14 13 13 14 14 14 14 14 17 17 17 19 22 25 25 22 15 14 15 14 13 12
6 2 7 7 7 10 13 14 16 20 21 20 20 19 18 21 22 21 19 17 18 19 15 14 13 14 15 14 15 17 17 18 15 18 22 24 25 24 17 14 14 13 8
7 5 4 7 9 11 13 17 20 20 22 23 23 22 21 23 24 21 18 18 20 22 19 17 14 15 15 14 16 17 20 22 21 18 18 21 23 23 23 24 21 18 11
1 4 7 8 12 14 17 21 20 22 23 23 23 23 23 23 24 24 14 11 15 20 21 22 17 12 10 11 11 10 11 12 13 14 16 22 23 25 27 25 24 26 22
5 8 9 14 18 20 20 21 21 21 21 22 25 27 27 26 24 9 8 12 13 11 17 17 15 14 13 13 14 16 16 16 17 18 19 19 25 30 31 30 28 23 23
12 15 16 16 17 18 21 20 20 18 15 17 14 17 22 23 23 13 16 20 16 11 12 13 14 16 16 16 16 12 12 14 15 15 16 20 25 30 34 35 31 26 22
13 15 17 19 20 19 16 16 12 18 24 22 20 19 19 23 23 23 22 21 18 15 12 12 16 17 17 17 18 20 21 20 20 21 19 22 25 27 28 29 30 32 26
19 19 21 21 21 20 19 20 22 24 25 24 22 22 24 20 22 22 18 18 19 19 18 18 19 21 23 25 26 28 29 27 23 24 21 19 22 22 24 27 27 24 20
19 19 19 20 20 21 20 24 24 23 21 21 22 26 25 24 22 21 22 22 22 20 17 22 26 28 27 27 28 26 24 27 27 27 25 22 21 20 23 24 27 24 24
19 19 20 20 21 20 22 21 21 26 27 26 25 24 23 25 24 25 21 20 21 21 14 19 23 25 28 29 29 26 25 26 27 29 27 25 22 21 23 21 23 25 23
20 19 17 20 20 21 22 21 23 22 21 21 23 26 28 24 21 22 22 24 22 20 20 22 24 25 26 27 28 28 29 26 26 27 27 25 24 20 18 21 22 21 16
20 18 19 20 20 22 22 22 21 19 18 22 27 28 25 21 21 18 19 19 21 24 25 24 26 25 26 27 27 27 28 28 27 24 24 25 23 20 21 21 21 21 18
19 20 21 20 21 20 20 20 20 21 21 20 20 23 25 20 19 22 20 21 22 24 25 24 25 25 26 27 29 30 29 28 27 26 26 26 25 21 21 20 21 20 22
20 21 21 20 20 20 20 20 20 21 22 22 22 21 19 22 21 19 19 22 25 24 26 25 25 26 27 28 30 29 30 29 29 28 27 25 25 22 25 24 23 24 22
18 19 20 20 21 20 21 22 21 21 20 20 20 20 21 21 20 21 24 25 24 24 26 25 27 27 26 26 28 30 29 27 28 30 28 25 26 27 25 25 25 24 24
19 20 20 20 20 22 21 20 20 21 22 20 21 21 20 20 22 23 25 26 26 26 27 27 26 28 28 28 29 32 32 30 30 29 28 27 26 25 27 26 26 25 24
19 19 20 20 20 21 20 22 21 23 23 22 22 21 21 22 24 22 22 27 27 26 24 27 27 31 30 30 31 32 31 31 32 32 29 30 28 28 27 26 28 25 24
19 18 18 20 21 21 22 21 22 23 23 23 22 23 24 24 23 24 28 24 27 28 23 30 35 29 25 25 26 27 32 32 31 29 26 27 30 30 31 29 28 26 26
20 20 17 19 19 21 22 22 23 23 24 23 24 24 24 25 25 24 26 27 26 30 34 31 30 29 33 32 29 26 25 27 26 28 26 27 29 30 30 29 29 29 27
Wind_Direction
192 146 155 83 44 32 37 42 47 45 78 69 39 40 284 316 312 306 295 276 272 261 265 260 259 257 251 250 251 243 260 240 235 273 282 304 273 272 246 241 238 244 249
212 235 252 277 314 333 329 336 331 326 318 310 322 2 342 322 314 311 296 270 262 266 285 277 258 263 262 254 247 247 256 252 238 258 270 275 282 247 263 243 250 260 259
228 299 270 293 326 350 354 356 359 356 341 322 298 239 249 254 271 300 312 305 272 279 269 286 268 254 253 257 260 260 265 265 261 259 269 252 244 253 281 269 269 269 261
81 67 65 49 43 32 25 19 12 18 17 18 13 357 285 273 262 276 275 301 216 240 247 263 277 262 253 251 261 256 260 262 264 266 273 285 244 248 268 267 263 260 259
102 90 83 65 68 58 39 26 19 14 16 16 15 20 11 314 286 275 281 270 266 229 244 254 255 255 252 245 241 243 253 255 260 260 249 248 230 233 237 253 256 257 258
137 136 144 18 16 39 45 33 23 18 12 8 9 9 0 358 346 337 291 282 271 266 269 263 254 247 252 256 251 248 254 249 254 260 252 239 245 242 247 248 250 249 254
188 235 264 284 309 335 356 6 5 355 352 353 352 353 347 345 345 331 321 303 298 295 290 276 259 251 251 259 260 261 261 261 252 248 247 251 249 252 256 246 240 246 238
230 245 278 288 287 321 339 350 349 344 337 336 337 334 320 317 317 322 309 295 294 296 291 284 270 263 264 268 273 278 271 266 260 254 250 256 248 243 251 261 256 239 245
272 49 56 33 8 358 358 359 355 344 338 335 332 325 315 309 310 305 304 295 287 288 291 290 282 280 281 282 278 280 283 280 288 276 264 261 250 243 240 236 225 217 234
111 87 32 351 337 336 335 338 337 331 328 327 325 321 314 311 314 316 313 297 286 283 283 283 287 290 292 288 284 281 279 285 294 294 265 248 249 245 238 233 238 221 207
6 318 317 329 333 328 328 333 331 328 326 326 325 323 321 322 323 327 324 301 281 282 280 279 277 287 292 297 298 297 295 303 293 286 279 267 256 250 246 243 239 236 221
311 323 317 326 317 317 319 323 330 333 330 330 329 330 330 326 326 311 326 335 340 315 284 276 263 264 275 288 289 289 287 286 284 282 278 268 263 254 249 244 235 228 235
321 316 316 308 304 307 312 318 326 330 337 339 337 337 337 338 336 284 302 304 310 316 309 285 254 264 274 280 284 290 292 290 294 286 274 262 256 258 260 246 237 227 233
348 338 328 316 306 303 300 311 322 325 321 316 312 312 314 317 314 320 316 301 293 292 297 281 275 266 272 278 274 277 281 279 280 279 273 275 277 260 248 237 223 219 211
348 342 337 333 331 317 312 309 311 315 315 308 309 311 310 303 310 313 306 306 288 280 275 260 256 261 275 282 278 280 284 279 267 267 264 276 274 261 247 229 218 201 201
352 345 338 333 331 328 320 316 313 314 311 304 307 307 305 307 310 314 310 313 305 292 262 246 248 252 255 263 271 277 281 279 268 265 268 268 275 263 247 234 217 214 214
336 334 331 328 330 324 320 316 312 315 312 309 310 307 303 306 309 308 315 317 312 304 269 265 256 255 254 259 267 271 271 276 279 269 266 265 272 263 242 232 221 210 213
345 339 331 332 331 326 322 317 310 306 303 302 310 311 311 304 306 318 314 314 308 310 295 285 278 278 271 263 266 270 276 276 271 265 262 259 266 254 233 226 216 206 191
343 340 333 327 321 316 311 304 305 306 311 309 315 314 312 307 314 309 317 316 311 308 305 296 293 288 283 281 276 275 275 272 269 263 257 253 256 242 234 227 223 206 197
337 332 330 325 319 318 317 316 315 311 306 300 300 299 305 304 310 320 313 304 305 307 307 299 294 288 284 279 278 276 271 270 266 259 251 248 247 239 229 221 216 205 205
333 327 328 323 318 314 310 306 306 306 303 301 296 300 306 312 312 303 301 302 304 299 294 292 288 290 285 279 279 274 268 265 262 258 251 242 233 224 227 226 221 217 208
341 336 333 331 328 325 322 319 307 305 306 310 317 320 316 312 306 305 303 298 293 292 289 287 285 283 279 276 272 271 267 261 256 256 251 241 233 227 223 218 209 208 208
349 341 338 335 332 330 326 322 320 316 311 312 312 308 307 307 306 302 299 297 295 294 293 292 281 280 279 276 277 275 270 262 266 267 259 238 227 225 217 208 203 199 202
1 352 345 342 340 336 333 330 327 324 319 314 311 308 310 309 306 304 313 313 308 307 302 295 298 287 283 284 285 284 274 264 272 274 260 246 224 224 215 204 195 196 194
12 359 353 350 345 341 338 339 338 335 332 329 326 322 318 316 316 313 311 309 311 313 303 301 304 306 296 296 296 287 274 271 268 266 252 250 231 217 212 204 194 184 175
14 12 2 355 355 353 347 345 341 341 339 335 333 328 324 319 314 313 313 312 312 306 308 305 301 298 296 291 286 285 275 270 262 254 249 247 225 213 209 203 195 186 181
Height
788 789 788 787 786 784 783 781 780 780 779 779 779 777 780 780 780 780 779 781 780 781 781 782 783 785 784 786 789 789 788 789 790 787 785 784 782 783 784 785 785 787 789
788 788 787 787 786 785 782 781 779 779 779 778 778 777 778 779 778 777 777 777 777 777 778 778 778 778 779 781 783 785 785 786 788 785 784 782 782 781 782 783 784 784 785
789 789 789 788 785 784 781 778 778 776 773 773 775 777 777 777 777 776 775 772 773 773 772 773 775 774 774 775 777 779 780 781 783 783 781 780 779 779 780 780 780 780 780
791 790 789 788 786 784 782 779 777 777 775 773 772 771 773 775 774 774 772 771 769 769 770 770 770 769 768 768 770 771 773 775 777 777 777 778 777 776 776 776 776 777 776
791 791 790 789 786 784 783 781 779 777 777 776 774 772 771 772 772 771 770 769 769 768 767 766 766 765 764 763 764 766 767 768 770 771 773 774 774 774 774 772 771 772 773
790 790 791 790 788 786 784 783 782 780 778 777 775 773 772 771 771 770 768 767 765 764 762 762 762 761 761 761 760 760 761 762 764 765 767 767 767 768 769 769 770 769 770
789 790 790 790 789 787 784 783 782 781 779 777 775 773 771 769 768 767 766 764 762 760 759 758 758 758 758 757 757 757 757 758 758 759 759 759 761 762 764 765 765 766 767
785 786 789 790 789 787 784 782 780 778 777 776 774 772 770 767 765 764 763 760 758 756 755 755 755 754 755 755 754 753 752 753 753 754 753 753 754 757 758 759 760 763 765
785 785 786 788 789 787 784 780 777 775 773 771 769 768 766 763 761 760 759 757 754 752 751 751 751 750 751 751 750 749 748 747 749 748 748 748 748 750 752 754 755 759 760
784 783 784 784 785 784 782 779 775 772 769 766 764 762 760 757 754 753 754 752 749 748 748 747 747 747 746 747 746 745 744 743 744 744 743 743 744 744 746 746 748 752 754
783 782 781 780 780 780 778 774 771 768 765 761 758 756 754 752 749 748 747 745 744 742 742 742 743 743 743 743 742 742 741 740 739 740 740 740 739 739 739 741 742 744 746
781 779 778 776 776 775 772 770 767 764 761 759 756 753 751 748 747 744 743 742 741 739 737 737 738 739 739 738 738 738 737 735 736 734 735 735 734 733 733 735 738 737 741
779 777 775 774 773 771 768 765 762 760 758 756 754 752 749 746 743 742 740 738 736 735 733 732 733 733 733 732 732 733 732 731 731 730 729 728 728 727 727 729 731 733 735
777 776 774 772 769 766 763 760 757 756 753 751 748 746 744 742 740 737 735 733 731 730 729 729 728 728 728 727 726 726 726 726 725 724 723 722 722 721 720 721 721 724 727
777 775 773 770 767 762 759 756 753 750 748 745 743 741 738 735 734 732 730 728 726 725 724 723 722 721 720 719 719 718 718 718 718 717 717 716 714 714 713 713 716 717 717
777 775 772 768 764 760 755 750 749 745 742 741 738 735 732 730 727 726 724 722 720 718 717 715 714 713 712 711 710 710 711 711 710 709 709 709 709 707 706 707 708 710 712
776 772 768 764 761 757 752 748 742 738 736 734 731 729 727 724 722 718 716 713 711 710 708 707 707 705 704 704 704 703 702 702 702 702 701 701 702 701 700 700 700 702 704
771 768 764 761 757 753 750 746 741 736 731 728 726 723 720 718 715 712 709 708 706 704 702 701 700 698 697 696 696 695 693 693 694 694 694 694 694 694 692 692 693 694 696
768 765 762 758 754 750 746 742 737 733 729 725 719 716 714 711 709 707 705 703 701 699 697 695 693 692 690 689 688 687 686 686 686 686 686 686 686 687 687 687 688 689 690
766 763 759 755 751 747 743 739 735 731 727 722 718 713 709 707 704 701 699 698 695 693 691 689 687 686 684 683 681 679 678 678 678 678 678 678 678 679 681 681 683 684 687
764 760 757 753 749 745 741 737 732 728 723 718 713 709 707 703 700 698 695 692 689 687 684 682 680 678 677 675 673 672 671 670 669 669 669 670 670 671 674 676 678 680 682
764 760 756 752 748 743 739 735 729 724 719 714 709 706 703 700 697 693 690 687 684 681 678 676 673 671 669 667 665 664 662 661 661 660 660 661 662 663 666 669 671 673 676
763 759 755 751 746 741 736 732 727 722 717 712 708 703 700 696 693 689 685 681 677 674 671 668 664 661 659 657 655 654 653 651 651 652 653 653 655 656 658 660 662 665 669
763 759 755 750 745 740 735 730 725 720 715 710 705 701 696 692 688 683 680 676 672 667 663 660 656 652 649 647 645 643 642 641 641 641 642 644 646 648 650 652 654 658 661
762 759 755 750 745 740 735 730 724 720 714 709 704 699 694 689 684 680 676 671 667 663 657 654 650 646 641 638 636 633 630 630 631 630 632 635 637 639 642 644 647 651 656
763 759 756 751 746 742 737 731 726 720 714 708 703 697 692 687 681 676 671 666 661 656 651 646 641 638 634 630 626 623 619 620 620 619 622 625 628 632 634 637 640 644 649